| time (UTC) | temp F | wind direction | speed MPH | gust MPH | rain 1hr in | rain 24hr in | rain mn in | humidity % | barometer mb |
| 20260506093813 | 57 | 63 | 4.0 | 11.0 | 0.00 | 0.09 | 0.01 | 61 | 1007.7 |
| 20260506093314 | 57 | 94 | 3.0 | 11.0 | 0.00 | 0.09 | 0.01 | 62 | 1007.6 |
| 20260506092809 | 57 | 79 | 4.0 | 12.0 | 0.00 | 0.09 | 0.00 | 66 | 1007.7 |
| 20260506092316 | 56 | 42 | 4.0 | 12.0 | 0.00 | 0.09 | 0.00 | 68 | 1007.7 |
| 20260506091814 | 56 | 30 | 4.0 | 11.0 | 0.00 | 0.09 | 0.00 | 68 | 1007.6 |
| 20260506090812 | 56 | 59 | 4.0 | 8.0 | 0.00 | 0.09 | 0.00 | 70 | 1007.6 |
| 20260506090325 | 56 | 67 | 4.0 | 0.0 | 0.00 | 0.00 | 0.00 | 69 | 1007.6 |
| 20260506083830 | 56 | 63 | 5.0 | 12.0 | 0.00 | 0.09 | 0.02 | 73 | 1007.5 |
| 20260506083349 | 56 | 59 | 4.0 | 12.0 | 0.00 | 0.09 | 0.02 | 74 | 1007.5 |
| 20260506082836 | 56 | 36 | 4.0 | 17.0 | 0.00 | 0.09 | 0.02 | 77 | 1007.5 |
| 20260506081822 | 55 | 86 | 5.0 | 12.0 | 0.00 | 0.09 | 0.02 | 78 | 1007.4 |
| 20260506081333 | 55 | 66 | 5.0 | 12.0 | 0.00 | 0.09 | 0.00 | 77 | 1007.4 |
| 20260506080758 | 55 | 71 | 4.0 | 8.0 | 0.00 | 0.09 | 0.00 | 79 | 1007.4 |
| 20260506080326 | 55 | 18 | 5.0 | 0.0 | 0.00 | 0.00 | 0.00 | 79 | 1007.4 |
| 20260506071613 | 55 | 30 | 4.0 | 10.0 | 0.00 | 0.09 | 0.00 | 80 | 1007.2 |
| 20260506071117 | 55 | 53 | 5.0 | 16.0 | 0.00 | 0.09 | 0.00 | 81 | 1007.2 |
| 20260506070611 | 55 | 86 | 5.0 | 16.0 | 0.00 | 0.09 | 0.00 | 82 | 1007.2 |
| 20260506070129 | 54 | 130 | 5.0 | 0.0 | 0.00 | 0.00 | 0.00 | 84 | 1007.2 |
| 20260506061949 | 51 | 43 | 3.0 | 11.0 | 0.00 | 0.09 | 0.00 | 89 | 1007.0 |
| 20260506060959 | 51 | 57 | 5.0 | 0.0 | 0.00 | 0.00 | 0.00 | 89 | 1007.0 |
| 20260506051321 | 51 | 53 | 4.0 | 11.0 | 0.00 | 0.09 | 0.00 | 89 | 1006.9 |